Weather History for KBCB - October, 2013

Change the Weather History Date:

Friday, October 11, 2013

  Actual Average Record
Temperature  
Mean Temperature 61 °F 54 °F  
Max Temperature 67 °F 67 °F 80 °F (2010)
Min Temperature 54 °F 41 °F 23 °F (1964)
Degree Days  
Heating Degree Days 4 12  
Month to date heating degree days 53 110  
Since 1 July heating degree days 186 241  
Cooling Degree Days 0 0  
Month to date cooling degree days 7 1  
Year to date cooling degree days 568 570  
Growing Degree Days 13 (Base 50)    
Moisture  
Dew Point 59 °F    
Average Humidity 88    
Maximum Humidity 100    
Minimum Humidity 76    
Precipitation  
Precipitation T in 0.09 in 2.63 in (1990)
Month to date precipitation 1.98 0.99  
Year to date precipitation 42.66 33.28  
Snow  
Snow 0.00 in - - ()
Month to date snowfall 0.0  
Since 1 July snowfall 0.0  
Since 1 September snowfall 0.0  
Snow Depth 0.00 in    
Sea Level Pressure  
Sea Level Pressure 30.04 in    
Wind  
Wind Speed 3 mph (WNW)    
Max Wind Speed 9 mph    
Max Gust Speed -    
Visibility 10 miles    
Events      
T = Trace of Precipitation, MM = Missing Value Source: NWS Daily Summary

Daily Weather History Graph

Daily Weather History Graph

Search for Another Location

Airport or City:

Trip Planner

Search our weather history database for the weather conditions in past years. The results will help you decide how hot, cold, wet, or windy it might be!

Date:

Astronomy

Oct. 11, 2013 Rise Set
Actual Time 7:26 AM EDT 6:49 PM EDT
Civil Twilight 6:59 AM EDT 7:16 PM EDT
Nautical Twilight 6:29 AM EDT 7:46 PM EDT
Astronomical Twilight 5:59 AM EDT 8:16 PM EDT
Moon 2:02 PM EDT (10/11) No Moon Set
Length of Visible Light 12h 16m
Length of Day
11h 23m
Waxing Crescent, 47% of the Moon is Illuminated
Oct 11
Waxing Crescent
Oct 11
First Quarter
Oct 18
Full
Oct 26
Last Quarter
Nov 3
New

Hourly Weather History & Observations

Time (EDT) Temp. Dew Point Humidity Pressure Visibility Wind Dir Wind Speed Gust Speed Precip Events Conditions
12:15 AM 60.8 °F 59.0 °F 94% 30.05 in 10.0 mi Calm Calm - N/A   Overcast
12:35 AM 60.8 °F 59.0 °F 94% 30.05 in 10.0 mi Calm Calm - N/A   Overcast
12:55 AM 60.8 °F 59.0 °F 94% 30.04 in 10.0 mi Calm Calm - N/A   Overcast
1:15 AM 60.8 °F 59.0 °F 94% 30.04 in 10.0 mi WNW 3.5 mph - N/A   Overcast
1:35 AM 60.8 °F 57.2 °F 88% 30.04 in 10.0 mi WNW 4.6 mph - N/A   Overcast
1:55 AM 60.8 °F 57.2 °F 88% 30.04 in 10.0 mi Calm Calm - N/A   Overcast
2:15 AM 60.8 °F 57.2 °F 88% 30.04 in 10.0 mi Calm Calm - N/A   Overcast
2:55 AM 60.8 °F 57.2 °F 88% 30.03 in 10.0 mi Calm Calm - N/A   Overcast
3:15 AM 59.0 °F 55.4 °F 88% 30.03 in 10.0 mi WNW 3.5 mph - N/A   Overcast
3:35 AM 59.0 °F 55.4 °F 88% 30.03 in 10.0 mi WNW 4.6 mph - N/A   Overcast
3:55 AM 59.0 °F 57.2 °F 94% 30.02 in 10.0 mi Calm Calm - N/A   Overcast
4:15 AM 57.2 °F 55.4 °F 94% 30.02 in 10.0 mi Calm Calm - N/A   Scattered Clouds
4:35 AM 57.2 °F 55.4 °F 94% 30.03 in 10.0 mi Calm Calm - N/A   Mostly Cloudy
4:55 AM 57.2 °F 55.4 °F 94% 30.02 in 10.0 mi West 3.5 mph - N/A   Overcast
5:15 AM 57.2 °F 57.2 °F 100% 30.03 in 10.0 mi Calm Calm - N/A   Overcast
5:35 AM 57.2 °F 57.2 °F 100% 30.03 in 10.0 mi Calm Calm - N/A   Overcast
5:55 AM 57.2 °F 57.2 °F 100% 30.03 in 10.0 mi West 3.5 mph - N/A   Overcast
6:15 AM 57.2 °F 57.2 °F 100% 30.03 in 10.0 mi West 3.5 mph - N/A   Overcast
6:35 AM 57.2 °F 57.2 °F 100% 30.03 in 10.0 mi WNW 4.6 mph - N/A   Overcast
6:55 AM 57.2 °F 57.2 °F 100% 30.04 in 10.0 mi Calm Calm - N/A   Mostly Cloudy
7:15 AM 57.2 °F 57.2 °F 100% 30.04 in 10.0 mi Calm Calm - N/A   Overcast
7:35 AM 57.2 °F 57.2 °F 100% 30.04 in 10.0 mi WNW 4.6 mph - N/A   Overcast
7:55 AM 59.0 °F 57.2 °F 94% 30.04 in 10.0 mi WNW 3.5 mph - N/A   Overcast
8:15 AM 59.0 °F 57.2 °F 94% 30.04 in 10.0 mi Calm Calm - N/A   Overcast
8:35 AM 59.0 °F 57.2 °F 94% 30.05 in 10.0 mi West 3.5 mph - N/A   Overcast
8:55 AM 59.0 °F 57.2 °F 94% 30.05 in 10.0 mi WNW 3.5 mph - N/A   Overcast
9:15 AM 60.8 °F 57.2 °F 88% 30.05 in 10.0 mi WNW 3.5 mph - N/A   Overcast
9:35 AM 60.8 °F 59.0 °F 94% 30.06 in 10.0 mi WNW 3.5 mph - N/A   Overcast
9:55 AM 62.6 °F 59.0 °F 88% 30.06 in 10.0 mi West 5.8 mph - N/A   Mostly Cloudy
10:15 AM 62.6 °F 59.0 °F 88% 30.06 in 10.0 mi West 4.6 mph - N/A   Overcast
10:35 AM 62.6 °F 59.0 °F 88% 30.06 in 10.0 mi West 4.6 mph - N/A   Overcast
10:55 AM 62.6 °F 60.8 °F 94% 30.06 in 10.0 mi West 4.6 mph - N/A   Overcast
11:15 AM 62.6 °F 60.8 °F 94% 30.06 in 10.0 mi West 6.9 mph - N/A   Overcast
11:35 AM 64.4 °F 60.8 °F 88% 30.05 in 10.0 mi WNW 4.6 mph - N/A   Overcast
11:55 AM 64.4 °F 60.8 °F 88% 30.06 in 10.0 mi WNW 6.9 mph - N/A   Overcast
12:15 PM 64.4 °F 60.8 °F 88% 30.05 in 10.0 mi WNW 4.6 mph - N/A   Overcast
12:35 PM 66.2 °F 60.8 °F 83% 30.05 in 10.0 mi WNW 10.4 mph - N/A   Overcast
12:55 PM 68.0 °F 60.8 °F 78% 30.05 in 10.0 mi NW 5.8 mph - N/A   Overcast
1:15 PM 68.0 °F 60.8 °F 78% 30.04 in 10.0 mi WNW 8.1 mph - N/A   Overcast
1:35 PM 66.2 °F 60.8 °F 83% 30.03 in 10.0 mi West 4.6 mph - N/A   Overcast
1:55 PM 68.0 °F 60.8 °F 78% 30.02 in 10.0 mi NW 8.1 mph - N/A   Overcast
2:15 PM 68.0 °F 60.8 °F 78% 30.02 in 10.0 mi NW 4.6 mph - N/A   Overcast
2:35 PM 66.2 °F 60.8 °F 83% 30.02 in 10.0 mi WNW 6.9 mph - N/A   Overcast
2:55 PM 68.0 °F 60.8 °F 78% 30.02 in 10.0 mi NW 8.1 mph - N/A   Overcast
3:15 PM 68.0 °F 60.8 °F 78% 30.02 in 10.0 mi NW 6.9 mph - N/A   Overcast
3:35 PM 69.8 °F 60.8 °F 73% 30.02 in 10.0 mi WNW 9.2 mph - N/A   Overcast
3:55 PM 68.0 °F 60.8 °F 78% 30.02 in 10.0 mi NW 9.2 mph - N/A   Overcast
4:15 PM 66.2 °F 60.8 °F 83% 30.02 in 10.0 mi NW 6.9 mph - N/A   Overcast
4:35 PM 66.2 °F 60.8 °F 83% 30.02 in 10.0 mi NW 5.8 mph - N/A   Overcast
4:55 PM 66.2 °F 60.8 °F 83% 30.02 in 10.0 mi NW 5.8 mph - N/A   Overcast
5:15 PM 64.4 °F 60.8 °F 88% 30.03 in 10.0 mi WNW 8.1 mph - N/A   Overcast
5:35 PM 64.4 °F 60.8 °F 88% 30.03 in 10.0 mi NW 8.1 mph - N/A   Overcast
5:55 PM 64.4 °F 60.8 °F 88% 30.04 in 10.0 mi NW 8.1 mph - N/A   Overcast
6:15 PM 64.4 °F 60.8 °F 88% 30.04 in 10.0 mi NW 8.1 mph - N/A   Overcast
6:35 PM 64.4 °F 60.8 °F 88% 30.04 in 10.0 mi NW 6.9 mph - N/A   Overcast
6:55 PM 64.4 °F 60.8 °F 88% 30.05 in 10.0 mi NW 4.6 mph - N/A   Overcast
7:15 PM 64.4 °F 60.8 °F 88% 30.05 in 10.0 mi West 3.5 mph - N/A   Overcast
7:35 PM 62.6 °F 60.8 °F 94% 30.05 in 10.0 mi West 3.5 mph - N/A   Overcast
7:55 PM 62.6 °F 60.8 °F 94% 30.05 in 10.0 mi Calm Calm - N/A   Overcast
8:15 PM 62.6 °F 60.8 °F 94% 30.06 in 10.0 mi WNW 3.5 mph - N/A   Overcast
8:35 PM 62.6 °F 60.8 °F 94% 30.06 in 10.0 mi Calm Calm - N/A   Overcast
8:55 PM 62.6 °F 60.8 °F 94% 30.05 in 10.0 mi Calm Calm - N/A   Overcast
9:15 PM 62.6 °F 60.8 °F 94% 30.06 in 10.0 mi Calm Calm - N/A   Overcast
9:35 PM 62.6 °F 60.8 °F 94% 30.06 in 10.0 mi Calm Calm - N/A   Overcast
9:55 PM 60.8 °F 60.8 °F 100% 30.06 in 10.0 mi Calm Calm - N/A   Overcast
10:15 PM 60.8 °F 59.0 °F 94% 30.06 in 10.0 mi Calm Calm - N/A   Overcast
10:35 PM 60.8 °F 60.8 °F 100% 30.07 in 10.0 mi Calm Calm - N/A   Overcast
10:55 PM 60.8 °F 60.8 °F 100% 30.07 in 10.0 mi Calm Calm - N/A   Overcast
11:15 PM 60.8 °F 60.8 °F 100% 30.06 in 10.0 mi Calm Calm - N/A   Overcast
11:35 PM 60.8 °F 60.8 °F 100% 30.06 in 10.0 mi Calm Calm - N/A   Overcast
11:55 PM 60.8 °F 60.8 °F 100% 30.07 in 10.0 mi Calm Calm - N/A   Overcast